User: anonymous
Location: Caltech
(34.1382°N, 118.1253°W)
Time: 08:51:27
(UTC-07:00)
Language:

Iridium 49 - Orbit

View from above orbital plane
View from above orbital plane
View from above satellite
View from above satellite

Ground track
Ground track

The orbit data is extracted from the following two-line orbital elements,

1 25108U 97082E   14262.23961275  .00000319  00000-0  10667-3 0  9134
2 25108 086.3957 314.2483 0002369 107.1306 317.8812 14.34219096876762
Epoch (UTC): 19 September 2014 05:45:02
Eccentricity: 0.0002369
inclination: 86.3957°
perigee height: 776 km
apogee height: 779 km
right ascension of ascending node: 314.2483°
argument of perigee: 107.1306°
revolutions per day: 14.34219096
mean anomaly at epoch: 317.8812°
orbit number at epoch: 87676

The dashed part of the orbit path shows where the satellite is in the earth's shadow,  

DLR